Simultaneous Nadir Overpasses (SNOs) Predictions

Prediction of SNOs between NOAA-20 and NOAA-19 Satellite Orbit:

Table of predicted SNOs for the next 14.0 days since TLE Epoch: 9/7/2018
Index Date (NOAA-20) Time (NOAA-20) Lat,Lon (NOAA-20) SZA (NOAA-20 ) Date (NOAA-19) Time (NOAA-19) Lat,Lon (NOAA-19) SZA (NOAA-19 ) Distance(km) Time Diff (sec)
1 09/09/2018 04:22:39 80.32, 71.84 77.46 09/09/2018 04:21:32 80.34, 68.65 77.89 59.54 67
2 09/09/2018 05:13:29 -80.45,-122.50 102.25 09/09/2018 05:12:28 -80.44,-122.42 102.24 2.40 61
3 09/09/2018 06:04:14 80.45, 44.82 77.77 09/09/2018 06:03:28 80.44, 44.86 77.78 1.69 46
4 09/09/2018 06:54:59 -80.45,-147.91 102.22 09/09/2018 06:54:29 -80.44,-147.89 102.21 1.88 30
5 09/09/2018 07:45:44 80.45, 19.42 77.80 09/09/2018 07:45:29 80.44, 19.37 77.80 1.85 15
6 09/09/2018 08:36:29 -80.46,-173.31 102.19 09/09/2018 08:36:30 -80.44,-173.37 102.19 2.24 1
7 09/09/2018 09:27:14 80.46, -5.99 77.83 09/09/2018 09:27:30 80.44, -6.11 77.83 2.89 16
8 09/09/2018 10:17:59 -80.46, 161.29 102.16 09/09/2018 10:18:31 -80.44, 161.16 102.17 3.20 32
9 09/09/2018 11:08:44 80.46, -31.39 77.86 09/09/2018 11:09:30 80.46, -31.25 77.82 2.56 46
10 09/09/2018 11:59:29 -80.46, 135.89 102.12 09/09/2018 12:00:31 -80.46, 136.02 102.17 2.40 62




NCC Satellite Simultaneous Nadir Overpasses (SNOs) Prediction Service
